TimeEST,TemperatureF,Dew PointF,Humidity,Sea Level PressureIn,VisibilityMPH,Wind Direction,Wind SpeedMPH,Gust SpeedMPH,PrecipitationIn,Events,Conditions,WindDirDegrees,DateUTC
12:52 AM,28.0,19.0,69,29.83,10.0,NW,11.5,-,N/A,,Partly Cloudy,320,2013-03-05 05:52:00
2:52 AM,27.0,19.0,72,29.85,10.0,NNW,8.1,-,N/A,,Clear,340,2013-03-05 07:52:00
3:52 AM,27.0,19.0,72,29.87,10.0,NNE,3.5,-,N/A,,Clear,20,2013-03-05 08:52:00
4:52 AM,27.0,18.0,69,29.90,10.0,NNW,6.9,-,N/A,,Clear,330,2013-03-05 09:52:00
5:52 AM,27.0,19.0,72,29.92,10.0,NNW,8.1,-,N/A,,Scattered Clouds,340,2013-03-05 10:52:00
6:52 AM,28.0,19.0,69,29.95,10.0,Calm,Calm,-,N/A,,Overcast,0,2013-03-05 11:52:00
7:52 AM,28.9,19.9,69,29.97,10.0,NNW,11.5,16.1,N/A,,Overcast,330,2013-03-05 12:52:00
8:52 AM,32.0,21.9,66,29.98,10.0,NNW,11.5,17.3,N/A,,Overcast,340,2013-03-05 13:52:00
9:52 AM,33.1,21.9,64,29.98,10.0,NNW,12.7,18.4,N/A,,Overcast,330,2013-03-05 14:52:00
10:52 AM,35.1,23.0,61,29.99,10.0,NNW,8.1,-,N/A,,Overcast,330,2013-03-05 15:52:00
11:52 AM,37.0,24.1,59,29.98,10.0,NW,9.2,-,N/A,,Overcast,320,2013-03-05 16:52:00
12:52 PM,39.9,25.0,55,29.97,10.0,NW,9.2,-,N/A,,Scattered Clouds,320,2013-03-05 17:52:00
1:52 PM,42.1,25.0,51,29.97,10.0,North,8.1,17.3,N/A,,Clear,10,2013-03-05 18:52:00
2:52 PM,43.0,25.0,49,29.98,10.0,North,5.8,-,N/A,,Mostly Cloudy,350,2013-03-05 19:52:00
3:52 PM,41.0,25.0,53,30.01,10.0,North,8.1,-,N/A,,Overcast,10,2013-03-05 20:52:00
4:52 PM,39.9,25.0,55,30.02,10.0,NNW,5.8,-,N/A,,Overcast,340,2013-03-05 21:52:00
5:52 PM,37.9,25.0,60,30.02,10.0,Calm,Calm,-,N/A,,Mostly Cloudy,0,2013-03-05 22:52:00
6:52 PM,33.1,26.1,75,30.04,10.0,Calm,Calm,-,N/A,,Scattered Clouds,0,2013-03-05 23:52:00
7:52 PM,30.0,25.0,82,30.06,3.0,Calm,Calm,-,N/A,,Haze,0,2013-03-06 00:52:00
8:52 PM,28.0,25.0,88,30.06,10.0,Calm,Calm,-,N/A,,Mostly Cloudy,0,2013-03-06 01:52:00
9:52 PM,28.9,25.0,85,30.07,10.0,Calm,Calm,-,N/A,,Overcast,0,2013-03-06 02:52:00
10:52 PM,30.0,26.1,85,30.08,10.0,Calm,Calm,-,N/A,,Overcast,0,2013-03-06 03:52:00
11:52 PM,30.0,27.0,88,30.06,10.0,Calm,Calm,-,0.00,,Overcast,0,2013-03-06 04:52:00